Simultaneous Nadir Overpasses (SNOs) Predictions

Prediction of SNOs between LANDSAT-8 and METOP-B Satellite Orbit:

Table of predicted SNOs for the next 14.0 days since TLE Epoch: 9/5/2025
Index Date (LANDSAT-8) Time (LANDSAT-8) Lat,Lon (LANDSAT-8) SZA (LANDSAT-8 ) Date (METOP-B) Time (METOP-B) Lat,Lon (METOP-B) SZA (METOP-B ) Distance(km) Time Diff (sec)
1 09/08/2025 10:18:08 81.45, 71.36 78.61 09/08/2025 10:17:03 81.45, 71.23 78.57 2.14 65
2 09/08/2025 11:07:35 -81.44,-121.09 101.39 09/08/2025 11:07:43 -81.45,-121.03 101.38 1.17 8
3 09/11/2025 05:52:23 81.44, 137.70 79.68 09/11/2025 05:51:30 81.45, 137.61 79.66 1.70 53
4 09/11/2025 06:41:50 -81.44, -54.73 100.32 09/11/2025 06:42:10 -81.45, -54.61 100.29 2.23 20
5 09/14/2025 01:26:37 81.44,-155.81 80.79 09/14/2025 01:25:56 81.45,-155.70 80.78 1.83 41
6 09/14/2025 02:16:04 -81.44, 11.78 99.21 09/14/2025 02:16:37 -81.45, 11.72 99.20 1.36 33
7 09/16/2025 21:00:49 81.45, -89.17 81.92 09/16/2025 21:00:21 81.45, -89.11 81.91 1.03 28
8 09/16/2025 21:50:16 -81.45, 78.44 98.08 09/16/2025 21:51:02 -81.45, 78.35 98.07 1.64 46
9 09/19/2025 16:35:02 81.45, -22.76 83.03 09/19/2025 16:34:47 81.45, -22.61 83.03 2.59 15



Historial Predications of SNOs between LANDSAT-8 and METOP-B
